Weather History for KFNB - March, 2014

Change the Weather History Date:

Tuesday, March 4, 2014

  Actual Average Record
Temperature  
Mean Temperature 24 °F -  
Max Temperature 37 °F 46 °F 78 °F (1983)
Min Temperature 10 °F 25 °F -9 °F (1960)
Degree Days  
Heating Degree Days 42    
Moisture  
Dew Point 15 °F    
Average Humidity 67    
Maximum Humidity 79    
Minimum Humidity 57    
Precipitation  
Precipitation 0.00 in - - ()
Sea Level Pressure  
Sea Level Pressure 30.11 in    
Wind  
Wind Speed 7 mph (SE)    
Max Wind Speed 13 mph    
Max Gust Speed -    
Visibility 10 miles    
Events      
Averages and records for this station are not official NWS values.
T = Trace of Precipitation, MM = Missing Value Source: NWS Daily Summary

Daily Weather History Graph

Daily Weather History Graph

Search for Another Location

Airport or City:

Trip Planner

Search our weather history database for the weather conditions in past years. The results will help you decide how hot, cold, wet, or windy it might be!

Date:

Astronomy

Mar. 04, 2014 Rise Set
Actual Time 6:51 AM CST 6:17 PM CST
Civil Twilight 6:24 AM CST 6:44 PM CST
Nautical Twilight 5:52 AM CST 7:16 PM CST
Astronomical Twilight 5:21 AM CST 7:47 PM CST
Moon 8:37 AM CST (3/4) 10:26 PM CST (3/4)
Length of Visible Light 12h 20m
Length of Day
11h 26m
Waxing Crescent, 15% of the Moon is Illuminated
Mar 4
Waxing Crescent
Mar 8
First Quarter
Mar 16
Full
Mar 23
Last Quarter
Mar 30
New

Hourly Weather History & Observations

Time (CST) Temp. Windchill Dew Point Humidity Pressure Visibility Wind Dir Wind Speed Gust Speed Precip Events Conditions
12:53 AM 12.9 °F 3.8 °F 3.9 °F 67% 30.26 in 10.0 mi SSE 5.8 mph - N/A   Clear
1:53 AM 10.0 °F 0.4 °F 3.0 °F 73% 30.24 in 10.0 mi SE 5.8 mph - N/A   Clear
2:53 AM 10.9 °F 1.4 °F 3.0 °F 70% 30.21 in 10.0 mi South 5.8 mph - N/A   Clear
3:53 AM 12.0 °F 1.5 °F 3.9 °F 70% 30.19 in 10.0 mi South 6.9 mph - N/A   Clear
4:53 AM 12.0 °F 2.7 °F 5.0 °F 73% 30.19 in 10.0 mi South 5.8 mph - N/A   Clear
5:53 AM 10.0 °F 3.6 °F 3.9 °F 76% 30.17 in 10.0 mi SE 3.5 mph - N/A   Clear
6:53 AM 12.0 °F 2.7 °F 5.0 °F 73% 30.16 in 10.0 mi SSE 5.8 mph - N/A   Clear
7:53 AM 14.0 °F 5.1 °F 6.1 °F 71% 30.15 in 10.0 mi SSE 5.8 mph - N/A   Clear
8:53 AM 17.1 °F 8.7 °F 7.0 °F 65% 30.14 in 10.0 mi SSE 5.8 mph - N/A   Clear
9:53 AM 19.9 °F 10.1 °F 9.0 °F 62% 30.13 in 10.0 mi SSE 8.1 mph - N/A   Clear
10:53 AM 24.1 °F 14.4 °F 10.9 °F 57% 30.13 in 10.0 mi SSE 9.2 mph - N/A   Clear
11:53 AM 26.1 °F 16.2 °F 12.9 °F 58% 30.12 in 10.0 mi SSE 10.4 mph - N/A   Clear
12:53 PM 30.0 °F 21.1 °F 17.1 °F 59% 30.08 in 10.0 mi South 10.4 mph - N/A   Clear
1:53 PM 33.1 °F 24.9 °F 21.0 °F 61% 30.06 in 10.0 mi South 10.4 mph - N/A   Clear
2:53 PM 35.1 °F 26.4 °F 21.0 °F 57% 30.04 in 10.0 mi SSE 12.7 mph - N/A   Partly Cloudy
3:53 PM 36.0 °F 28.5 °F 23.0 °F 59% 30.02 in 10.0 mi SSE 10.4 mph - N/A   Clear
4:53 PM 37.0 °F 30.4 °F 23.0 °F 57% 30.01 in 10.0 mi SSE 9.2 mph - N/A   Clear
5:53 PM 35.1 °F 28.6 °F 24.1 °F 64% 30.00 in 10.0 mi SE 8.1 mph - N/A   Clear
6:53 PM 32.0 °F 25.6 °F 24.1 °F 73% 30.01 in 10.0 mi ESE 6.9 mph - N/A   Clear
7:53 PM 32.0 °F 25.6 °F 24.1 °F 73% 30.02 in 10.0 mi East 6.9 mph - N/A   Clear
8:53 PM 32.0 °F 28.7 °F 24.1 °F 73% 30.04 in 10.0 mi ENE 3.5 mph - N/A   Clear
9:53 PM 30.9 °F 24.3 °F 24.1 °F 76% 30.05 in 10.0 mi ESE 6.9 mph - N/A   Clear
10:53 PM 32.0 °F 25.6 °F 24.1 °F 73% 30.07 in 10.0 mi East 6.9 mph - N/A   Clear
11:53 PM 30.9 °F 26.2 °F 25.0 °F 79% 30.09 in 10.0 mi East 4.6 mph - N/A   Mostly Cloudy